Regional Weather Roundup
Issued by NWS Cleveland, OH

Home | Current Version | Previous Version | Graphics & Text | Print | Product List | Glossary On
Versions: 1 2 3 4 5 6 7 8 9 10 11 12 13 14 15 16 17 18 19 20 21 22 23 24 25 26 27 28 29 30 31 32 33 34 35 36 37 38 39 40 41 42 43 44 45 46 47 48 49 50
000
ASUS41 KCLE 281100
RWRCLE
OHIO REGIONAL WEATHER ROUNDUP
NATIONAL WEATHER SERVICE WILMINGTON, OH
600 AM EST SUN DEC 28 2014

NOTE: "FAIR" INDICATES FEW OR NO CLOUDS BELOW 12,000 FEET WITH NO
SIGNIFICANT WEATHER AND/OR OBSTRUCTIONS TO VISIBILITY.

OHZ001>008-015>018-024>027-034-035-043-044-281200-
   NORTHWEST OHIO

CITY           SKY/WX    TMP DP  RH WIND       PRES   REMARKS
DEFIANCE       CLOUDY    35  30  82 W5        30.08R
FINDLAY        CLOUDY    35  30  82 W8        30.06R WCI  29
TOLEDO EXPRESS CLOUDY    34  30  85 W8        30.05R WCI  27
TOLEDO METCALF CLOUDY    35  31  85 SW6       30.06R
LIMA           CLOUDY    36  31  82 W12       30.08R
$$

OHZ009>014-019>023-028>033-038-089-281200-
   NORTHEAST OHIO

CITY           SKY/WX    TMP DP  RH WIND       PRES   REMARKS
CLE-HOPKINS    CLOUDY    36  33  89 W10       30.05R
CLE-LAKEFRONT  CLOUDY    37  34  89 W15       30.02R
CUY CO. ARPT   NOT AVBL
LORAIN-ELYRIA  CLOUDY    35  32  88 W8        30.04R WCI  29
ASHTABULA      CLOUDY    36  34  92 W7        29.99S
AKRON-CANTON   LGT SNOW  36  33  89 NW14      30.00R FOG
WOOSTER        NOT AVBL
MANSFIELD      LGT SNOW  34  33  96 W7        30.03R FOG     WCI  28
YOUNGSTOWN     LGTSLEET  35  33  92 NW10      29.98R FOG     WCI  27
$$

OHZ042-051>053-060>062-070>072-077>081-281200-
  SOUTHWEST OHIO

CITY           SKY/WX    TMP DP  RH WIND       PRES   REMARKS
CINC-COVINGTON CLOUDY    37  32  82 N8        30.09R
CINC-LUNKEN    CLOUDY    38  35  89 NW5       30.11R
HAMILTON       CLOUDY    36  35  96 W9        30.12R FOG
DAYTON         NOT AVBL
WRIGHT-PAT AFB LGT RAIN  36  32  87 NW9       30.09R
DAYTON GENERAL CLOUDY    35  34  96 NW6       30.08R FOG
WILMINGTON     CLOUDY    36  33  89 NW13      30.06R FOG
$$

OHZ036-037-039>041-045>050-054>059-063>069-073>076-082>088-281200-
  CENTRAL AND SOUTHEAST OHIO

CITY           SKY/WX    TMP DP  RH WIND       PRES   REMARKS
COLUMBUS       LGT RAIN  37  37 100 NW12      30.05R FOG
OSU AIRPORT    MIX PCPN  36  34  92 NW9       30.06R FOG
BOLTON FIELD   NOT AVBL
RICKENBACK AFB NOT AVBL
NEWARK         LGT RAIN  39  36  89 NW8       30.04R FOG
MARION         CLOUDY    35  33  92 NW7       30.06R FOG     WCI  29
LANCASTER      CLOUDY    39  38  96 N8        30.04S FOG
ZANESVILLE     CLOUDY    40  38  93 NW8       30.02R
NEW PHILLY     LGT RAIN  41  38  89 NW10      30.02R FOG
$$


USA.gov is the U.S. government's official web portal to all federal, state and local government web resources and services.